Retour au catalogue

ONEWEB-0023

ActifCommunicationsPO
NORAD 45136·PAYLOAD·🇬🇧 United Kingdom

Lancé Feb 6, 2020 depuis Baikonur Cosmodrome

Loading…

Prochains Passages (prochaines 24 heures)

TLE

FraisSource: CelesTrak SupGP

Époque: Sep 14, 2026, 08:20 UTC

1 45136C 20008F   26257.34772405  .00000382  00000+0  10961-2 0  2571
2 45136  87.8907  18.5147 0001786 107.6199 318.1269 13.10373465    15

Suivez ONEWEB-0023 en temps réel avec AllMySat

Download on the App Store